AB1IG Weather Reports


Display with metric or nautical units.
time (UTC)temp
F
wind
direction
speed
MPH
gust
MPH
rain 1hr
in
rain 24hr
in
rain mn
in
humidity
%
barometer
mb
20260504043053 69 115 5.0 13.0 0.00 0.00 0.00 43 1008.1
20260504041539 69 205 4.0 9.0 0.00 0.00 0.00 43 1008.2
20260504040041 70 308 3.0 10.0 0.00 0.00 0.00 42 1008.3
20260504034545 70 181 3.0 11.0 0.00 0.00 0.00 41 1008.3
20260504033035 70 153 4.0 10.0 0.00 0.00 0.00 41 1008.4
20260504031544 71 319 4.0 9.0 0.00 0.00 0.00 40 1008.4
20260504030039 71 227 3.0 9.0 0.00 0.00 0.00 40 1008.4
20260504024536 71 228 2.0 12.0 0.00 0.00 0.00 41 1008.3
20260504023033 72 132 3.0 8.0 0.00 0.00 0.00 40 1008.3
20260504021541 72 119 3.0 11.0 0.00 0.00 0.00 39 1008.2
20260504020037 73 259 4.0 12.0 0.00 0.00 0.00 38 1008.1
20260504014530 73 241 4.0 10.0 0.00 0.00 0.00 37 1008.0
20260504013035 74 134 3.0 10.0 0.00 0.00 0.00 36 1007.8
20260504011530 75 222 3.0 8.0 0.00 0.00 0.00 34 1007.8
20260504010028 77 235 2.0 8.0 0.00 0.00 0.00 31 1008.0
20260504004539 78 160 3.0 10.0 0.00 0.00 0.00 30 1007.9
20260504003026 78 124 3.0 10.0 0.00 0.00 0.00 29 1008.0
20260504001533 80 280 5.0 14.0 0.00 0.00 0.00 28 1008.2
20260504000024 82 217 4.0 10.0 0.00 0.00 0.00 27 1008.3
20260503234524 82 163 3.0 10.0 0.00 0.00 0.00 26 1008.4
20260503233021 82 190 4.0 11.0 0.00 0.00 0.00 26 1008.4
20260503231522 82 120 4.0 12.0 0.00 0.00 0.00 24 1008.6
20260503230020 83 246 3.0 11.0 0.00 0.00 0.00 25 1008.6
20260503224517 83 252 4.0 12.0 0.00 0.00 0.00 25 1008.6
20260503223016 83 210 3.0 12.0 0.00 0.00 0.00 24 1008.8
20260503221513 84 339 4.0 11.0 0.00 0.00 0.00 24 1009.0
20260503220021 83 261 5.0 14.0 0.00 0.00 0.00 25 1009.1
20260503214522 84 262 5.0 10.0 0.00 0.00 0.00 25 1009.3
20260503213016 84 38 3.0 11.0 0.00 0.00 0.00 26 1009.6
20260503211507 84 156 4.0 12.0 0.00 0.00 0.00 26 1009.7
20260503210006 84 260 4.0 13.0 0.00 0.00 0.00 24 1010.1
20260503204502 84 287 5.0 15.0 0.00 0.00 0.00 23 1010.4
20260503203100 84 248 3.0 16.0 0.00 0.00 0.00 25 1010.5
20260503201559 84 127 1.0 9.0 0.00 0.00 0.00 26 1010.8
20260503200056 84 211 5.0 11.0 0.00 0.00 0.00 25 1011.1
20260503194611 84 156 3.0 10.0 0.00 0.00 0.00 26 1011.4
20260503193051 84 176 4.0 11.0 0.00 0.00 0.00 27 1011.8
20260503191554 84 259 2.0 14.0 0.00 0.00 0.00 26 1011.9
20260503190050 84 169 3.0 11.0 0.00 0.00 0.00 24 1012.2
20260503184543 83 280 4.0 12.0 0.00 0.00 0.00 25 1012.2
20260503183043 83 169 4.0 12.0 0.00 0.00 0.00 25 1012.6
20260503181554 83 288 3.0 10.0 0.00 0.00 0.00 30 1012.8
20260503180046 83 243 3.0 8.0 0.00 0.00 0.00 31 1013.1
20260503174530 81 113 3.0 9.0 0.00 0.00 0.00 33 1013.4
20260503173028 81 270 2.0 8.0 0.00 0.00 0.00 34 1013.6
20260503171527 80 246 3.0 9.0 0.00 0.00 0.00 36 1013.8
20260503081542 58 153 0.0 5.0 0.00 0.00 0.00 63 1015.3
20260503071537 58 262 0.0 7.0 0.00 0.00 0.00 61 1016.1
20260503054534 58 135 0.0 3.0 0.00 0.00 0.00 57 1016.7
20260503053022 58 133 0.0 3.0 0.00 0.00 0.00 57 1016.7
20260503051519 59 134 0.0 1.0 0.00 0.00 0.00 57 1016.7
20260503050016 59 127 0.0 3.0 0.00 0.00 0.00 55 1016.6
20260503044516 60 146 0.0 4.0 0.00 0.00 0.00 55 1016.5